• In Netherlands
  • List of Countries
  • For 7 days
  • Water Temperature
  • Satellite Maps
  • Weather Map
  • Weather Widgets
  • user-avatar
    Login

    Hourly Weather La Rioja

    Today, 23 October, Monday

    Time Temperature Precipitation Wind Pressure Humidity
    00:00 +19°C° 0 mm 2 mps 715 mmHg 39%
    01:00 +19°C° 0 mm 2 mps 714 mmHg 41%
    02:00 +18°C° 0 mm 2 mps 714 mmHg 43%
    03:00 +18°C° 0 mm 2 mps 714 mmHg 44%
    04:00 +17°C° 0 mm 2 mps 713 mmHg 45%
    05:00 +17°C° 0 mm 2 mps 713 mmHg 46%
    06:00 +18°C° 0 mm 2 mps 713 mmHg 41%
    07:00 +19°C° 0 mm 2 mps 714 mmHg 37%
    08:00 +21°C° 0 mm 2 mps 714 mmHg 32%
    09:00 +24°C° 0 mm 2 mps 713 mmHg 28%
    10:00 +26°C° 0 mm 3 mps 713 mmHg 25%
    11:00 +28°C° 0 mm 3 mps 713 mmHg 21%
    12:00 +29°C° 0 mm 3 mps 712 mmHg 20%
    13:00 +30°C° 0 mm 4 mps 711 mmHg 18%
    14:00 +33°C° 0 mm 4 mps 711 mmHg 16%
    15:00 +33°C° 0 mm 4 mps 710 mmHg 16%
    16:00 +33°C° 0 mm 4 mps 710 mmHg 16%
    17:00 +33°C° 0 mm 4 mps 709 mmHg 16%
    18:00 +30°C° 0 mm 4 mps 710 mmHg 19%
    19:00 +28°C° 0 mm 3 mps 711 mmHg 22%
    20:00 +27°C° 0 mm 3 mps 711 mmHg 24%
    21:00 +26°C° 0 mm 3 mps 712 mmHg 28%
    22:00 +25°C° 0 mm 2 mps 712 mmHg 31%
    23:00 +24°C° 0 mm 2 mps 712 mmHg 34%

    Tomorrow, 24 October, Tuesday

    Time Temperature Precipitation Wind Pressure Humidity
    00:00 +23°C° 0 mm 2 mps 712 mmHg 36%
    01:00 +23°C° 0 mm 2 mps 712 mmHg 38%
    02:00 +21°C° 0 mm 2 mps 712 mmHg 40%
    03:00 +20°C° 0 mm 2 mps 712 mmHg 42%
    04:00 +20°C° 0 mm 2 mps 712 mmHg 44%
    05:00 +19°C° 0 mm 2 mps 712 mmHg 46%
    06:00 +20°C° 0 mm 2 mps 712 mmHg 41%
    07:00 +23°C° 0 mm 2 mps 712 mmHg 37%
    08:00 +24°C° 0 mm 2 mps 712 mmHg 33%
    09:00 +26°C° 0 mm 2 mps 712 mmHg 29%
    10:00 +28°C° 0 mm 3 mps 712 mmHg 26%
    11:00 +30°C° 0 mm 3 mps 712 mmHg 22%
    12:00 +32°C° 0 mm 4 mps 711 mmHg 21%
    13:00 +33°C° 0 mm 4 mps 711 mmHg 19%
    14:00 +34°C° 0 mm 4 mps 710 mmHg 18%
    15:00 +34°C° 0 mm 4 mps 710 mmHg 18%
    16:00 +34°C° 0 mm 4 mps 709 mmHg 18%
    17:00 +34°C° 0 mm 4 mps 709 mmHg 17%
    18:00 +33°C° 0 mm 3 mps 710 mmHg 20%
    19:00 +31°C° 0 mm 3 mps 710 mmHg 23%
    20:00 +29°C° 0 mm 3 mps 711 mmHg 26%
    21:00 +28°C° 0 mm 3 mps 711 mmHg 30%
    22:00 +28°C° 0 mm 3 mps 712 mmHg 34%
    23:00 +27°C° 0 mm 3 mps 712 mmHg 38%

    Day after tomorrow, 25 October, Wednesday

    Time Temperature Precipitation Wind Pressure Humidity
    00:00 +26°C° 0 mm 3 mps 712 mmHg 42%
    01:00 +25°C° 0 mm 3 mps 712 mmHg 46%
    02:00 +25°C° 0 mm 3 mps 711 mmHg 50%
    03:00 +24°C° 0 mm 3 mps 711 mmHg 54%
    04:00 +22°C° 0 mm 3 mps 711 mmHg 58%
    05:00 +21°C° 0 mm 3 mps 711 mmHg 63%
    06:00 +22°C° 0 mm 3 mps 711 mmHg 61%
    07:00 +24°C° 0 mm 3 mps 712 mmHg 59%
    08:00 +24°C° 0 mm 3 mps 712 mmHg 57%
    09:00 +26°C° 0 mm 3 mps 712 mmHg 49%
    10:00 +28°C° 0 mm 3 mps 712 mmHg 42%
    11:00 +30°C° 0 mm 4 mps 712 mmHg 35%
    12:00 +32°C° 0.1 mm 4 mps 711 mmHg 33%
    13:00 +33°C° 0.1 mm 4 mps 711 mmHg 30%
    14:00 +34°C° 0.1 mm 4 mps 710 mmHg 28%
    15:00 +34°C° 0.1 mm 4 mps 709 mmHg 29%
    16:00 +34°C° 0.1 mm 4 mps 709 mmHg 29%
    17:00 +34°C° 0.1 mm 4 mps 709 mmHg 30%
    18:00 +32°C° 0 mm 4 mps 709 mmHg 36%
    19:00 +30°C° 0 mm 4 mps 710 mmHg 42%
    20:00 +29°C° 0 mm 4 mps 710 mmHg 49%
    21:00 +28°C° 0.3 mm 3 mps 711 mmHg 54%
    22:00 +27°C° 0.3 mm 2 mps 711 mmHg 59%
    23:00 +26°C° 0.3 mm 1 mps 711 mmHg 64%

    26 October, Thursday

    Time Temperature Precipitation Wind Pressure Humidity
    00:00 +26°C° 0.2 mm 1 mps 711 mmHg 67%
    01:00 +25°C° 0.2 mm 1 mps 710 mmHg 69%
    02:00 +25°C° 0.2 mm 1 mps 710 mmHg 71%
    03:00 +25°C° 0.1 mm 1 mps 710 mmHg 72%
    04:00 +24°C° 0.1 mm 1 mps 710 mmHg 73%
    05:00 +24°C° 0.1 mm 2 mps 710 mmHg 74%
    06:00 +25°C° 0.1 mm 2 mps 711 mmHg 71%
    07:00 +25°C° 0.1 mm 2 mps 711 mmHg 67%
    08:00 +26°C° 0.1 mm 1 mps 712 mmHg 63%
    09:00 +28°C° 0 mm 2 mps 711 mmHg 56%
    10:00 +30°C° 0 mm 2 mps 711 mmHg 49%
    11:00 +31°C° 0 mm 2 mps 711 mmHg 42%
    12:00 +33°C° 0.2 mm 3 mps 710 mmHg 38%
    13:00 +34°C° 0.2 mm 3 mps 709 mmHg 34%
    14:00 +35°C° 0.2 mm 4 mps 709 mmHg 30%
    15:00 +35°C° 0.5 mm 4 mps 708 mmHg 30%
    16:00 +35°C° 0.5 mm 4 mps 708 mmHg 30%
    17:00 +35°C° 0.5 mm 5 mps 708 mmHg 29%
    18:00 +34°C° 0.5 mm 4 mps 709 mmHg 33%
    19:00 +33°C° 0.5 mm 4 mps 709 mmHg 37%
    20:00 +30°C° 0.5 mm 3 mps 710 mmHg 41%
    21:00 +30°C° 0.3 mm 3 mps 711 mmHg 44%
    22:00 +29°C° 0.3 mm 2 mps 711 mmHg 48%
    23:00 +28°C° 0.3 mm 2 mps 712 mmHg 51%

    27 October, Friday

    Time Temperature Precipitation Wind Pressure Humidity
    00:00 +28°C° 0.6 mm 3 mps 712 mmHg 53%
    01:00 +27°C° 0.6 mm 3 mps 712 mmHg 54%
    02:00 +26°C° 0.6 mm 4 mps 712 mmHg 55%
    03:00 +25°C° 0.4 mm 4 mps 713 mmHg 59%
    04:00 +25°C° 0.4 mm 3 mps 713 mmHg 62%
    05:00 +24°C° 0.4 mm 3 mps 714 mmHg 65%
    06:00 +24°C° 0.1 mm 3 mps 714 mmHg 62%
    07:00 +25°C° 0.1 mm 3 mps 715 mmHg 60%
    08:00 +25°C° 0.1 mm 3 mps 715 mmHg 57%
    09:00 +27°C° 0 mm 3 mps 715 mmHg 51%
    10:00 +28°C° 0 mm 3 mps 715 mmHg 45%
    11:00 +29°C° 0 mm 3 mps 714 mmHg 39%
    12:00 +30°C° 0.1 mm 3 mps 713 mmHg 36%
    13:00 +31°C° 0.1 mm 3 mps 712 mmHg 33%
    14:00 +33°C° 0.1 mm 4 mps 711 mmHg 29%
    15:00 +33°C° 0.1 mm 4 mps 711 mmHg 30%
    16:00 +33°C° 0.1 mm 4 mps 710 mmHg 30%
    17:00 +33°C° 0.1 mm 5 mps 710 mmHg 31%
    18:00 +32°C° 0.4 mm 4 mps 710 mmHg 35%
    19:00 +30°C° 0.4 mm 4 mps 711 mmHg 39%
    20:00 +29°C° 0.4 mm 4 mps 711 mmHg 43%
    21:00 +28°C° 0.3 mm 4 mps 711 mmHg 45%
    22:00 +28°C° 0.3 mm 4 mps 711 mmHg 47%
    23:00 +27°C° 0.3 mm 4 mps 711 mmHg 50%

    28 October, Saturday

    Time Temperature Precipitation Wind Pressure Humidity
    00:00 +26°C° 0 mm 4 mps 711 mmHg 51%
    01:00 +25°C° 0 mm 4 mps 710 mmHg 53%
    02:00 +25°C° 0 mm 3 mps 710 mmHg 54%
    03:00 +24°C° 0 mm 3 mps 709 mmHg 55%
    04:00 +22°C° 0 mm 3 mps 709 mmHg 57%
    05:00 +22°C° 0 mm 3 mps 709 mmHg 58%
    06:00 +24°C° 0 mm 3 mps 709 mmHg 55%
    07:00 +25°C° 0 mm 3 mps 709 mmHg 52%
    08:00 +26°C° 0 mm 3 mps 709 mmHg 49%
    09:00 +27°C° 0 mm 3 mps 708 mmHg 43%
    10:00 +29°C° 0 mm 3 mps 708 mmHg 36%
    11:00 +31°C° 0 mm 3 mps 707 mmHg 29%
    12:00 +33°C° 0 mm 3 mps 706 mmHg 26%
    13:00 +34°C° 0 mm 4 mps 705 mmHg 22%
    14:00 +36°C° 0 mm 4 mps 704 mmHg 19%
    15:00 +36°C° 0 mm 5 mps 704 mmHg 20%
    16:00 +35°C° 0 mm 6 mps 703 mmHg 21%
    17:00 +35°C° 0 mm 7 mps 703 mmHg 23%
    18:00 +34°C° 0 mm 6 mps 703 mmHg 28%
    19:00 +32°C° 0 mm 5 mps 704 mmHg 34%
    20:00 +30°C° 0 mm 4 mps 705 mmHg 39%
    21:00 +29°C° 0.7 mm 3 mps 705 mmHg 43%
    22:00 +28°C° 0.7 mm 3 mps 705 mmHg 46%
    23:00 +27°C° 0.7 mm 3 mps 705 mmHg 50%

    29 October, Sunday

    Time Temperature Precipitation Wind Pressure Humidity
    00:00 +26°C° 0.1 mm 3 mps 705 mmHg 49%
    01:00 +26°C° 0.1 mm 3 mps 705 mmHg 48%
    02:00 +25°C° 0.1 mm 3 mps 704 mmHg 47%
    03:00 +24°C° 0 mm 3 mps 705 mmHg 43%
    04:00 +24°C° 0 mm 3 mps 705 mmHg 39%
    05:00 +22°C° 0 mm 3 mps 706 mmHg 36%
    06:00 +25°C° 0 mm 4 mps 707 mmHg 30%
    07:00 +26°C° 0 mm 4 mps 708 mmHg 24%
    08:00 +28°C° 0 mm 5 mps 708 mmHg 19%
    09:00 +29°C° 0 mm 7 mps 709 mmHg 15%
    10:00 +32°C° 0 mm 8 mps 709 mmHg 12%
    11:00 +33°C° 0 mm 10 mps 709 mmHg 8%
    12:00 +33°C° 0 mm 10 mps 709 mmHg 9%
    13:00 +33°C° 0 mm 10 mps 709 mmHg 10%
    14:00 +32°C° 0 mm 10 mps 708 mmHg 11%
    15:00 +31°C° 0 mm 9 mps 708 mmHg 13%
    16:00 +29°C° 0 mm 8 mps 708 mmHg 15%
    17:00 +28°C° 0 mm 7 mps 708 mmHg 17%
    18:00 +26°C° 0 mm 7 mps 709 mmHg 21%
    19:00 +23°C° 0 mm 6 mps 710 mmHg 25%
    20:00 +22°C° 0 mm 5 mps 712 mmHg 29%
    21:00 +20°C° 0 mm 4 mps 712 mmHg 29%
    22:00 +19°C° 0 mm 3 mps 713 mmHg 30%
    23:00 +18°C° 0 mm 3 mps 714 mmHg 30%
    Show more